Flag for Lebanon Weather past 2 weeks in Beirut, Lebanon

Now
84 °F

Passing clouds.


Feels Like: 88 °F
Forecast: 78 / 84 °F
Wind: 13 mph from Northwest

Location: Beirut Airport

Current Time: Sep 17, 2014 at 5:05:41 PM

Latest Report: Sep 17, 2014 at 4:00 PM


Visibility: N/A

Pressure: 29.80 "Hg

Humidity: 62%

Dew point: 70 °F

Location of BeirutLocation

Historic Weather in Beirut — Graph

°F

Beirut temperature yesterday

Maximum temperature yesterday: 86 °F (at 1:00 PM)
Minimum temperature yesterday: 77 °F (at 6:00 AM)
Average temperature yesterday: 82 °F

Past Weeks' High & Low Weather Summary

 TemperatureHumidityPressure
High88 °F (Sep 3, 3:00 PM)79% (Sep 4, 10:00 PM)29.98 "Hg (Sep 4, 10:00 PM)
Low77 °F (Sep 8, 5:00 AM)42% (Sep 9, 8:00 AM)29.74 "Hg (Sep 5, 6:00 PM)
Average82 °F60%29.88 "Hg
* Reported Sep 2 4:00 PM — Sep 17 4:00 PM, Beirut, Weather by CustomWeather, © 2014

Note: Actual official high and low records may vary slightly from our data, if they occured in-between our weather recording intervals... More about our weather records

Advertising

Beirut weather history for previous 24 hours

 ConditionsComfort  
Time TempWeatherWind HumidityBarometerVisibility
4:00 PM
Sep 17
84 °FPassing clouds.13 mph62%29.80 "HgN/A
3:00 PM84 °FPassing clouds.8 mph62%29.83 "Hg5 mi
2:00 PM84 °FPassing clouds.7 mph62%29.83 "HgN/A
1:00 PM84 °FPassing clouds.8 mph62%29.83 "Hg5 mi
12:00 PM84 °FPassing clouds.7 mph62%29.86 "HgN/A
11:00 AM84 °FPassing clouds.8 mph58%29.86 "HgN/A
10:00 AM82 °FPassing clouds.6 mph58%29.86 "HgN/A
9:00 AM82 °FPassing clouds.2 mph48%29.86 "HgN/A
8:00 AM79 °FPassing clouds.5 mph48%29.86 "HgN/A
7:00 AM77 °FPassing clouds.7 mph57%29.86 "HgN/A
6:00 AM77 °FClear.6 mph65%29.86 "Hg10 mi
5:00 AM77 °FClear.6 mph61%29.83 "Hg10 mi
4:00 AM77 °FPassing clouds.3 mph61%29.83 "HgN/A
3:00 AM77 °FPassing clouds.5 mph51%29.83 "Hg5 mi
2:00 AM77 °FPassing clouds.5 mph57%29.83 "Hg5 mi
1:00 AM79 °FPassing clouds.5 mph61%29.86 "Hg5 mi
12:00 AM79 °FPassing clouds.5 mph65%29.86 "HgN/A
11:00 PM
Sep 16
79 °FPassing clouds.5 mph65%29.89 "HgN/A
10:00 PM81 °FPassing clouds.3 mph62%29.89 "HgN/A
9:00 PM81 °FPassing clouds.2 mph62%29.89 "HgN/A
7:00 PM81 °FScattered clouds.7 mph66%29.89 "HgN/A
6:00 PM82 °FScattered clouds.9 mph58%29.86 "HgN/A
5:00 PM84 °FScattered clouds.9 mph58%29.86 "HgN/A
Weather by CustomWeather, © 2014

See weather overviewHow to use our weather pages